Theta_e
312 314 320 322 325 326 328 328 327 328 327 326 326 327 334 336 342 350 351 350 350 344 342 340 343 347 344 337 339 342 344 344 342 340 338 332 326 326 326 324 332 335 331 326 323 322 323 324 325
311 314 319 322 324 326 327 326 328 325 325 324 326 327 336 349 354 354 352 350 349 342 338 341 345 344 337 336 340 341 342 341 338 336 333 329 323 325 326 323 326 327 323 321 322 324 324 325 326
311 315 321 324 325 323 325 325 325 323 324 324 325 327 347 352 352 350 350 342 347 340 338 342 343 337 332 333 337 340 339 337 335 332 330 326 323 325 326 322 322 322 322 323 324 324 325 330 333
313 317 318 323 322 323 323 324 323 324 324 323 323 333 339 347 352 352 344 342 343 339 340 344 342 334 330 332 334 336 335 334 332 330 327 323 324 325 326 322 322 322 323 324 324 325 330 335 336
314 315 319 320 320 321 321 321 322 323 323 323 322 326 326 343 350 351 346 348 340 339 341 344 341 334 332 331 333 333 333 333 331 330 325 322 324 326 326 322 322 322 324 325 324 325 329 335 334
315 316 315 315 317 319 320 320 321 321 321 321 321 324 328 343 351 351 352 345 340 338 340 343 342 336 333 332 333 333 333 332 331 329 323 323 325 326 325 322 323 322 323 325 325 324 325 327 332
315 316 314 315 316 316 317 318 319 318 319 319 320 323 329 339 352 352 351 350 341 339 339 344 344 338 334 332 333 333 331 331 327 325 323 324 325 326 325 323 324 322 322 325 325 324 324 325 325
312 314 314 315 314 313 315 316 317 316 316 319 320 326 328 329 346 352 348 346 341 339 342 345 344 341 336 332 333 332 332 333 327 325 325 325 325 325 325 324 323 322 321 322 325 325 324 324 324
312 313 313 312 313 313 314 316 315 316 316 316 317 319 322 328 335 352 350 343 340 340 342 344 345 343 339 333 333 333 333 334 333 329 324 325 326 325 324 324 323 322 321 320 322 324 325 324 324
312 312 312 312 313 313 313 313 313 313 314 315 316 317 320 325 331 349 351 345 341 340 340 341 344 344 341 336 333 334 334 335 336 335 329 323 325 325 324 324 324 324 322 320 320 323 324 324 323
310 312 311 312 311 312 312 312 312 313 314 314 316 318 318 331 333 341 351 350 345 341 341 341 341 344 343 338 334 335 336 336 337 337 336 332 324 324 325 325 325 324 323 322 321 321 322 323 323
310 310 310 310 310 312 312 312 313 313 315 315 316 316 316 317 325 339 332 334 334 347 345 342 342 342 343 342 340 337 336 337 338 339 339 337 335 329 325 324 324 323 323 322 322 321 322 322 322
310 312 311 311 311 312 312 313 314 313 314 316 315 316 316 317 321 333 346 335 334 328 336 348 344 341 343 342 341 338 337 337 337 338 339 340 339 338 334 327 325 324 323 323 322 322 321 321 321
313 313 314 314 313 311 313 314 312 316 316 316 315 316 318 318 324 325 326 326 326 326 326 335 349 342 340 341 341 340 338 337 337 337 339 339 339 341 341 340 338 334 331 328 323 322 322 321 320
313 315 316 316 315 315 313 315 315 317 316 316 316 317 319 324 324 324 324 325 325 325 326 327 335 348 344 340 341 340 340 337 336 338 339 339 339 340 340 340 340 341 340 339 338 334 328 325 324
316 315 317 317 315 313 314 318 318 317 315 316 317 318 318 319 324 324 326 327 326 326 325 323 322 330 342 347 342 342 341 339 338 338 339 338 341 341 341 341 340 340 339 340 341 341 341 340 338
315 317 316 317 315 315 315 318 319 318 316 317 318 318 318 319 318 324 326 327 325 325 325 325 323 320 323 335 346 345 342 340 340 341 341 338 330 341 341 340 338 339 339 339 340 341 341 342 342
316 316 316 317 317 317 318 318 319 317 316 317 318 318 318 318 318 317 323 325 324 322 324 325 325 320 322 326 335 343 346 344 341 340 341 342 343 343 337 337 336 337 337 340 340 341 341 340 340
315 316 316 317 317 317 319 318 319 318 317 317 316 317 317 316 317 317 317 323 322 323 325 323 323 319 319 323 331 340 345 344 342 342 340 339 341 342 337 336 336 338 340 339 340 340 339 337 335
315 316 317 317 317 317 319 319 318 318 318 318 316 317 317 316 316 316 315 319 325 323 321 320 320 321 324 326 330 340 340 342 341 340 338 342 342 340 342 339 337 342 344 340 337 334 334 330 331
316 317 317 317 317 318 318 319 319 318 318 320 319 318 318 317 318 317 316 316 318 319 320 325 327 331 334 335 335 336 337 339 341 342 343 341 341 341 339 340 343 344 342 340 337 332 329 327 324
317 317 317 318 319 320 317 319 320 318 320 322 321 321 320 320 324 324 323 321 321 323 327 329 329 329 328 329 335 338 339 337 337 336 334 333 333 333 334 336 337 339 338 334 331 331 335 333 328
318 318 318 319 320 319 318 319 319 320 322 323 321 319 318 319 319 321 322 322 323 324 324 324 324 325 325 325 326 326 325 324 324 324 325 324 324 323 323 324 324 325 325 325 325 329 332 334 335
318 317 316 317 318 320 319 319 319 320 322 322 319 316 315 315 315 316 317 318 318 318 318 319 320 320 320 320 320 320 321 321 321 321 322 322 323 321 320 320 318 317 319 321 322 324 328 328 329
319 320 320 320 320 320 321 320 320 322 320 322 318 315 314 314 314 314 315 315 315 315 315 316 316 316 316 316 315 315 315 315 315 315 315 315 315 315 315 315 315 315 315 316 318 319 321 322 323
321 321 321 321 321 320 323 324 324 318 317 317 315 314 313 312 312 312 312 312 313 313 314 314 315 315 316 316 316 316 316 315 315 315 315 315 315 315 315 315 315 315 316 316 317 320 319 318 319
321 322 319 323 322 324 322 323 318 317 316 314 313 313 312 311 311 310 309 310 311 312 312 313 313 314 314 314 315 315 315 315 315 315 314 314 314 314 315 315 315 315 315 316 318 327 326 320 319
321 319 323 322 324 324 322 323 322 320 318 315 315 313 311 310 310 309 309 309 310 310 311 311 311 312 312 312 312 312 312 312 312 312 313 313 313 312 312 312 312 313 313 314 315 319 326 325 324
321 322 321 322 322 324 323 321 318 321 318 316 314 311 310 309 308 308 308 308 309 310 311 312 312 313 313 313 314 314 315 314 314 314 314 314 313 313 313 313 312 311 310 311 313 314 322 325 324
320 322 323 324 325 323 322 322 314 315 315 314 312 310 309 309 309 308 307 306 307 309 310 310 311 312 312 312 312 312 312 311 310 310 309 309 309 309 308 307 307 308 309 311 312 315 319 323 323
Wind_Speed
9 9 5 1 4 1 4 3 1 4 3 9 12 6 12 8 6 10 16 8 14 30 28 26 25 24 23 21 22 24 24 23 19 16 14 13 12 15 17 17 18 17 15 15 14 15 15 16 16
7 8 5 3 5 7 6 3 4 3 8 11 11 17 6 2 3 10 9 10 18 27 28 27 25 25 25 22 22 22 22 20 18 15 14 13 14 16 17 17 16 15 14 15 15 15 15 16 16
8 11 5 3 4 13 5 7 4 4 8 11 9 11 6 5 6 6 8 8 25 26 27 26 25 25 25 24 21 20 19 18 17 16 14 13 15 17 17 16 16 15 15 15 15 15 15 15 16
9 6 4 5 14 9 4 7 4 9 5 6 16 5 12 9 7 7 5 11 22 26 26 26 25 24 24 22 20 19 17 16 15 14 13 13 16 18 17 16 15 15 15 15 15 14 15 15 14
12 4 3 5 11 6 5 9 10 8 9 12 15 12 20 9 8 4 8 7 20 26 27 26 25 24 24 22 20 18 17 16 15 14 13 15 17 18 18 17 16 15 15 14 14 13 14 13 12
4 3 3 12 10 4 8 9 10 10 12 12 13 13 9 9 8 2 8 11 20 27 27 27 26 24 23 22 20 17 16 15 15 14 15 17 18 19 18 17 16 16 16 15 14 13 13 12 11
4 4 5 4 5 6 8 2 6 9 7 11 8 9 6 7 4 2 4 9 21 26 27 28 27 26 23 21 20 18 16 15 14 14 15 17 19 19 19 17 16 15 15 16 15 14 13 12 11
6 2 5 6 6 9 5 2 4 11 8 6 1 3 4 12 4 1 3 10 20 23 24 27 28 27 25 23 21 19 18 15 12 12 14 17 19 20 19 18 17 16 16 16 16 15 14 13 12
8 4 7 7 9 6 4 5 3 3 10 12 13 12 13 13 7 5 6 12 20 21 23 25 27 27 26 24 22 20 19 17 14 13 14 16 19 20 20 19 18 17 16 17 17 17 16 15 14
6 5 9 4 7 6 5 5 8 4 9 10 14 15 13 12 10 7 9 14 19 20 21 22 25 26 25 25 24 23 22 20 18 16 16 18 19 20 20 20 19 17 17 17 17 17 17 17 17
6 5 4 5 11 10 11 11 5 7 9 16 16 11 8 9 13 8 9 10 14 17 19 20 23 27 27 27 26 25 24 24 23 21 20 19 20 21 22 21 21 20 18 18 18 19 20 20 19
4 8 7 3 8 7 8 5 7 11 14 17 16 19 19 15 17 17 11 7 3 8 15 18 22 26 27 26 27 27 27 27 27 26 24 24 23 23 22 22 21 21 21 20 21 21 21 21 21
6 6 8 14 12 15 10 19 10 14 18 18 19 22 20 17 15 18 11 7 3 4 7 16 19 26 28 30 31 31 31 30 28 27 28 27 26 25 23 23 23 23 23 23 23 23 24 24 24
8 11 12 8 14 12 10 6 10 16 16 18 15 20 15 11 13 15 12 4 2 5 12 16 20 22 27 31 32 34 34 30 29 29 31 28 27 28 28 27 26 25 25 25 25 25 26 26 27
4 4 5 9 6 6 13 4 9 18 7 15 14 15 10 10 15 25 23 19 17 15 14 20 21 24 27 32 34 33 33 32 31 32 33 29 28 30 29 29 30 29 28 28 26 27 27 27 29
2 1 5 4 3 0 8 5 8 8 7 14 15 14 14 11 11 15 24 18 21 28 23 12 23 28 29 33 36 37 36 34 36 32 33 22 30 30 32 31 32 33 30 30 30 30 29 28 29
1 5 5 5 1 3 5 8 10 9 7 12 16 16 16 16 16 14 26 30 32 30 27 20 28 28 33 33 35 39 39 35 35 34 35 25 19 32 32 30 30 29 28 31 32 32 31 30 30
5 3 3 5 2 5 12 13 13 9 6 14 18 17 16 18 19 19 25 26 22 17 20 20 32 30 29 31 36 38 37 37 35 35 35 32 34 33 27 27 31 23 21 21 24 23 24 24 24
4 5 9 10 7 5 9 9 11 11 6 10 16 16 10 12 14 18 22 28 26 21 20 16 20 26 27 30 33 35 36 36 33 33 32 34 35 33 32 26 21 22 22 20 22 24 20 16 21
6 6 11 10 5 8 6 11 6 4 4 10 6 3 7 8 4 3 15 17 22 26 24 27 30 26 22 21 23 27 26 27 27 32 31 31 32 32 33 26 22 22 23 23 22 21 31 42 39
8 9 9 11 1 7 5 5 3 1 5 10 10 5 1 3 5 7 8 12 16 17 20 17 15 10 6 7 10 14 17 20 19 20 21 20 24 27 25 22 19 20 23 27 26 25 35 32 40
9 12 15 13 5 6 2 6 3 1 3 9 12 11 8 16 17 16 13 9 8 6 7 7 5 4 4 5 6 6 8 10 10 10 10 11 12 13 14 16 19 22 24 27 28 24 28 30 28
9 7 10 12 10 4 6 5 3 2 3 8 12 14 16 17 18 20 20 20 18 15 13 11 9 7 7 5 4 5 5 7 7 10 12 13 14 14 15 17 19 22 25 26 24 26 27 29 31
4 4 4 4 4 6 7 7 6 4 5 9 10 11 13 16 19 19 18 15 14 12 11 9 7 5 4 4 5 7 9 12 15 17 21 24 24 24 23 24 24 25 26 26 26 26 26 28 29
7 6 4 5 5 7 6 5 6 5 2 13 12 12 13 14 17 16 14 12 9 6 4 2 3 4 5 8 10 13 15 18 21 23 25 28 29 30 31 31 31 32 31 29 31 32 33 33 33
8 6 4 6 6 5 4 6 3 3 8 15 14 14 13 13 13 13 12 9 6 4 3 5 7 9 12 16 17 19 21 24 26 29 32 34 36 38 39 40 40 38 35 35 34 34 35 35 36
5 5 2 3 2 3 3 3 4 7 10 13 14 11 10 10 10 9 8 7 7 7 9 11 13 16 19 21 24 27 29 32 35 37 39 41 43 44 45 46 46 46 44 39 37 33 36 37 37
2 9 3 3 5 8 7 8 6 12 12 12 11 11 9 7 7 7 8 9 10 12 14 16 19 22 24 26 29 31 33 35 37 39 41 42 44 46 48 49 48 48 47 45 42 39 35 37 37
4 4 2 2 2 7 10 6 2 12 14 13 10 7 5 5 6 8 10 12 14 16 18 20 22 24 25 26 27 29 31 32 33 35 36 38 40 40 42 42 42 43 43 43 43 43 39 37 38
2 6 10 7 9 1 2 5 3 3 11 12 9 5 3 3 6 9 13 15 17 19 21 22 24 23 23 25 27 27 28 28 30 32 33 33 34 34 33 31 32 34 35 35 36 36 33 37 40
Wind_Direction
225 228 218 244 234 241 225 234 287 17 337 331 317 277 309 280 281 298 318 243 197 183 180 180 184 184 184 181 175 171 170 169 170 173 174 171 166 161 157 155 156 154 151 150 148 144 141 139 137
203 193 174 126 231 225 226 223 188 59 322 330 342 327 296 357 297 300 320 187 181 183 179 178 180 181 182 178 174 173 173 175 177 182 184 177 168 164 161 159 157 158 156 151 147 145 144 144 144
175 166 168 201 221 231 218 178 133 318 332 349 346 333 328 339 335 338 316 193 172 182 179 180 181 180 181 180 180 180 181 184 185 186 189 185 173 168 164 163 161 161 158 154 150 148 147 147 146
153 137 82 219 227 246 210 164 293 325 329 356 345 334 340 336 319 313 160 161 173 181 181 182 182 181 181 184 186 187 190 191 192 193 195 188 178 172 169 168 167 165 163 159 155 154 154 149 145
159 126 171 224 239 269 247 237 276 301 303 312 331 309 324 290 340 335 188 159 181 183 184 185 185 184 185 187 190 192 194 196 197 199 201 190 183 179 176 174 173 172 170 168 164 163 162 161 155
120 119 196 233 233 245 262 258 280 278 287 301 308 305 317 319 342 294 195 195 184 184 186 187 187 189 191 190 191 195 198 198 201 206 202 194 188 186 184 182 181 180 179 177 175 175 175 177 175
160 170 214 218 248 267 256 210 223 278 286 292 260 292 304 325 349 52 159 198 183 185 189 189 190 190 193 194 194 196 199 201 207 209 205 198 194 193 192 192 191 190 189 189 188 186 187 190 192
138 125 174 215 225 258 252 223 229 266 279 272 230 225 331 2 271 200 173 171 181 190 194 193 194 193 193 194 196 197 198 202 204 210 209 204 200 198 201 200 200 200 200 201 201 200 199 203 207
148 155 215 231 191 239 210 222 184 230 282 280 275 284 302 302 326 205 183 178 186 196 200 201 199 197 196 195 197 199 201 203 205 204 210 210 208 206 205 207 208 209 210 210 210 211 212 214 218
182 200 218 220 213 258 271 281 304 291 295 280 278 267 281 285 277 237 212 192 194 206 208 209 205 203 201 200 200 201 204 207 210 212 211 214 218 218 218 218 217 217 219 222 222 221 222 224 227
181 231 207 239 230 257 285 297 274 261 270 266 263 268 295 288 261 227 210 227 222 215 216 218 216 208 206 204 205 207 210 213 216 218 219 219 219 222 224 227 227 225 224 227 230 229 230 234 236
205 236 217 246 229 226 242 250 259 244 250 260 263 276 288 276 256 234 205 184 185 253 244 230 224 219 214 215 216 218 220 223 222 223 222 222 225 226 231 234 236 237 233 232 234 236 237 240 242
228 239 217 240 245 234 254 253 262 262 262 254 273 283 280 268 237 232 208 172 219 275 262 256 241 225 221 221 220 221 227 227 231 231 231 229 229 234 235 237 240 244 246 243 241 243 245 246 247
205 233 256 269 247 231 218 259 186 260 263 268 271 281 281 228 200 188 161 258 302 286 280 274 252 245 231 230 228 228 229 231 235 239 236 236 237 239 239 241 241 244 246 251 252 252 254 256 257
231 265 282 227 218 230 216 233 229 256 283 270 268 267 267 204 213 226 238 246 274 276 284 291 273 257 245 238 240 240 238 234 236 238 242 238 245 246 247 251 253 251 254 253 255 258 259 264 269
255 245 269 155 199 140 188 285 309 317 249 260 263 256 252 252 231 222 218 234 256 265 256 280 299 275 260 248 241 239 240 238 244 244 240 252 258 255 254 256 258 258 258 261 262 265 265 267 272
78 236 238 289 341 127 229 305 289 307 311 273 260 254 252 247 242 228 215 218 254 251 235 266 293 283 266 260 253 249 242 246 252 254 252 235 261 256 259 265 271 272 270 272 269 268 273 276 281
195 217 223 245 106 308 290 274 279 303 278 269 261 254 244 246 245 232 216 223 224 218 254 249 270 279 270 257 252 256 252 248 246 247 253 255 252 256 248 276 285 266 263 265 261 265 273 289 294
225 250 268 265 278 296 294 278 284 325 315 299 259 249 262 247 240 233 219 222 219 211 208 228 240 254 262 260 243 248 251 251 253 247 251 259 258 251 262 272 272 269 260 255 247 239 245 281 302
207 254 266 279 269 208 304 300 315 359 10 342 277 224 255 237 196 160 208 217 219 210 217 225 238 246 254 255 254 249 255 261 258 257 260 256 248 258 271 274 271 272 267 270 247 258 278 286 287
228 239 250 249 251 241 273 268 252 137 0 355 20 28 346 103 133 163 184 195 205 215 223 231 233 244 253 257 247 249 257 264 265 266 266 266 261 264 267 272 265 268 269 270 280 284 276 286 268
248 227 240 248 237 258 256 258 234 123 2 32 37 54 74 105 102 102 120 147 162 158 142 180 177 172 199 215 205 222 258 269 276 270 271 279 285 288 286 286 283 279 277 275 278 273 256 267 260
231 217 231 227 209 208 183 238 201 175 116 70 71 66 75 91 104 107 106 110 114 120 126 127 137 153 157 166 171 185 210 235 252 266 273 273 274 280 289 292 289 288 288 285 279 274 267 267 267
142 138 106 121 167 225 201 232 201 213 125 130 103 83 84 88 96 102 103 106 103 105 112 119 129 135 155 201 234 250 257 263 269 272 275 275 274 274 272 270 269 272 272 270 270 267 262 261 261
185 183 198 202 204 240 163 201 254 134 187 157 136 116 103 96 97 100 102 99 101 106 114 165 236 248 246 249 254 260 265 266 266 270 271 270 271 270 270 267 264 264 263 266 265 260 258 256 256
193 210 220 234 232 240 166 218 144 81 115 129 125 120 106 92 89 95 94 84 69 43 346 309 286 272 271 274 276 277 277 277 277 275 275 273 271 270 269 269 271 268 264 262 260 261 258 257 255
158 205 92 126 126 266 219 138 128 140 126 129 127 118 97 85 77 64 56 44 20 352 330 314 301 293 287 284 280 278 277 276 275 274 274 275 273 274 273 270 269 269 268 264 257 252 252 256 255
233 141 163 228 230 241 219 238 216 184 170 151 145 130 110 88 56 33 15 360 344 330 318 310 304 300 297 294 290 287 284 283 282 282 281 281 280 278 276 274 271 269 267 266 262 256 250 247 248
150 179 94 152 204 247 255 231 25 194 172 159 142 120 100 84 37 9 352 342 334 325 318 312 307 305 303 301 300 299 298 297 295 294 293 292 289 286 283 280 276 270 264 260 258 257 250 247 246
201 206 204 218 208 220 269 263 34 139 151 151 139 126 104 61 11 354 342 333 331 328 324 321 317 315 314 311 308 306 306 305 303 301 298 295 292 289 289 284 280 276 271 264 259 255 252 248 245